This demonstration page uses our WeatherBlox Daily Observations layout. Learn more.

38.89511, -77.03637

Hourly Observations for September 27, 2018

Temp ( °F °C ) Dew Point ( °F °C ) Humidity (%) Winds ( mph kmh ) Pressure ( in mb ) Visibility ( mi km ) Precip ( " mm )
12:52 am 00:52 Cloudy 74 23.3 67 19.4 79 79 NNW 12 19 30.02 1017 10 16.0934 0 0
1:52 am 01:52 Cloudy with Light Rain 72 22.2 66 18.9 82 82 NNW 9 15 30.02 1017 10 16.0934 0 0.0254
2:52 am 02:52 Cloudy 72 22.2 65 18.3 79 79 NNW 12 19 30.03 1017 10 16.0934 0 0.0254
3:52 am 03:52 Cloudy 70 21.1 62 16.7 76 76 N 12 19 30.06 1018 10 16.0934 0 0
4:52 am 04:52 Cloudy 69 20.6 57 13.9 66 66 NNE 13 20 30.07 1018 10 16.0934 0 0
5:52 am 05:52 Cloudy 68 20 59 15 73 73 N 12 19 30.1 1019 10 16.0934 0 0
6:52 am 06:52 Cloudy 68 20 59 15 73 73 NNE 9 15 30.11 1020 10 16.0934 0 0
7:52 am 07:52 Cloudy 67 19.4 58 14.4 73 73 NNE 9 15 30.14 1021 10 16.0934 0 0.0254
8:52 am 08:52 Cloudy 67 19.4 56 13.3 68 68 NNE 13 20 30.15 1021 10 16.0934 0 0
9:52 am 09:52 Cloudy 67 19.4 54 12.2 63 63 NE 10 17 30.16 1021 10 16.0934 0 0.0254
10:52 am 10:52 Cloudy 67 19.4 52 11.1 59 59 NE 13 20 30.15 1021 10 16.0934 0 0
11:52 am 11:52 Cloudy 67 19.4 52 11.1 59 59 ENE 8 13 30.15 1021 10 16.0934 0 0
12:52 pm 12:52 Cloudy 67 19.4 52 11.1 59 59 ENE 6 9 30.15 1021 10 16.0934 0 0
1:52 pm 13:52 Cloudy with Light Rain 64 17.8 53 11.7 68 68 NE 9 15 30.13 1020 10 16.0934 0 0.0254
2:05 pm 14:05 Cloudy with Light Rain 63 17.2 54 12.2 73 73 ENE 12 19 30.12 1020 2.5 4.02335 0 0.0254
2:34 pm 14:34 Cloudy with Light Rain 61 16.1 55 12.8 81 81 NE 13 20 30.12 1020 5 8.0467 0.03 0.762
2:52 pm 14:52 Cloudy with Light Rain 61 16.1 55 12.8 81 81 NNE 13 20 30.09 1019 5 8.0467 0.04 1.016
3:22 pm 15:22 Cloudy with Light Rain 61 16.1 56 13.3 84 84 N 10 17 30.09 1019 10 16.0934 0 0.0254
3:52 pm 15:52 Cloudy with Light Rain 60 15.6 57 13.9 90 90 N 9 15 30.09 1019 8 12.87472 0.01 0.254
3:54 pm 15:54 Cloudy with Light Rain 60 15.6 57 13.9 90 90 N 9 15 30.09 1019 8 12.87472 0 0.0254
4:05 pm 16:05 Cloudy with Rain 60 15.6 56 13.3 86 86 N 10 17 30.09 1019 4 6.43736 0.01 0.254
4:20 pm 16:20 Cloudy with Rain 59 15 56 13.3 90 90 N 10 17 30.09 1019 3 4.82802 0.05 1.27
4:38 pm 16:38 Cloudy with Light Rain 59 15 56 13.3 90 90 N 9 15 30.09 1019 6 9.65604 0.08 2.032
4:52 pm 16:52 Cloudy with Light Rain 59 15 55 12.8 87 87 N 9 15 30.08 1019 5 8.0467 0.08 2.032
4:56 pm 16:56 Cloudy with Heavy Rain 59 15 55 12.8 87 87 NNE 10 17 30.09 1019 2.5 4.02335 0.02 0.508
5:00 pm 17:00 Cloudy with Heavy Rain 59 15 55 12.8 87 87 NNE 9 15 30.09 1019 1.75 2.816345 0.04 1.016
5:03 pm 17:03 Cloudy with Rain 59 15 55 12.8 87 87 N 8 13 30.09 1019 2 3.21868 0.04 1.016
5:08 pm 17:08 Cloudy with Rain 59 15 56 13.3 90 90 NNE 8 13 30.09 1019 3 4.82802 0.05 1.27
5:25 pm 17:25 Cloudy with Light Rain 59 15 55 12.8 87 87 NNE 9 15 30.09 1019 9 14.48406 0.06 1.524
5:52 pm 17:52 Cloudy with Rain 59 15 56 13.3 90 90 NNE 10 17 30.06 1018 5 8.0467 0.07 1.778
6:08 pm 18:08 Cloudy with Rain 59 15 56 13.3 90 90 N 10 17 30.06 1018 3 4.82802 0.04 1.016
6:21 pm 18:21 Cloudy with Light Rain 59 15 56 13.3 90 90 NNE 10 17 30.06 1018 7 11.26538 0.06 1.524
6:34 pm 18:34 Cloudy with Light Rain 59 15 56 13.3 90 90 N 9 15 30.06 1018 5 8.0467 0.08 2.032
6:52 pm 18:52 Cloudy with Light Rain 59 15 56 13.3 90 90 NNE 10 17 30.06 1018 8 12.87472 0.11 2.794
7:00 pm 19:00 Cloudy with Light Rain 59 15 55 12.8 87 87 NE 12 19 30.06 1018 9 14.48406 0 0.0254
7:23 pm 19:23 Cloudy with Heavy Rain 59 15 56 13.3 90 90 N 9 15 30.06 1018 2.5 4.02335 0.03 0.762
7:31 pm 19:31 Cloudy with Rain 59 15 56 13.3 90 90 N 7 11 30.06 1018 3 4.82802 0.07 1.778
7:37 pm 19:37 Cloudy with Light Rain 59 15 56 13.3 90 90 N 8 13 30.09 1019 4 6.43736 0.07 1.778
7:52 pm 19:52 Cloudy with Rain 59 15 56 13.3 90 90 N 10 17 30.07 1018 4 6.43736 0.1 2.54
8:15 pm 20:15 Cloudy with Light Rain 59 15 56 13.3 90 90 NE 10 17 30.06 1018 6 9.65604 0.01 0.254
8:45 pm 20:45 Cloudy with Light Rain 59 15 56 13.3 90 90 NE 10 17 30.06 1018 7 11.26538 0.02 0.508
8:52 pm 20:52 Cloudy with Light Rain 59 15 56 13.3 90 90 NNE 9 15 30.06 1018 9 14.48406 0.02 0.508
8:56 pm 20:56 Cloudy with Light Rain 60 15.6 56 13.3 86 86 NNE 10 17 30.06 1018 9 14.48406 0 0.0254
8:58 pm 20:58 Cloudy with Light Rain 59 15 56 13.3 90 90 NNE 9 15 30.06 1018 10 16.0934 0.01 0.254
9:25 pm 21:25 Cloudy with Light Rain 59 15 56 13.3 90 90 NE 13 20 30.06 1018 8 12.87472 0.01 0.254
9:41 pm 21:41 Cloudy 60 15.6 56 13.3 86 86 NE 10 17 30.06 1018 10 16.0934 0.01 0.254
9:52 pm 21:52 Cloudy 60 15.6 56 13.3 86 86 NE 10 17 30.04 1017 10 16.0934 0.01 0.254
10:52 pm 22:52 Cloudy with Light Drizzle 60 15.6 57 13.9 90 90 NE 8 13 30.02 1017 7 11.26538 0.04 1.016
11:52 pm 23:52 Cloudy with Light Rain 61 16.1 58 14.4 90 90 NNE 5 7 29.99 1016 4 6.43736 0.02 0.508

Powered by AerisWeather